Sacramento International, CA

9:58 PM PST on November 23, 2017 (GMT -0800)
Sacramento International

Weather History for KSMF - August, 2013

Change the Weather History Date:

Monday, August 19, 2013

  Actual Average Record
Temperature  
Mean Temperature 85 °F -  
Max Temperature 102 °F 88 °F 107 °F (1950)
Min Temperature 70 °F 57 °F 48 °F (1999)
Cooling Degree Days 20    
Growing Degree Days 35 (Base 50)    
Moisture  
Dew Point 62 °F    
Average Humidity 53    
Maximum Humidity 76    
Minimum Humidity 23    
Precipitation  
Precipitation 0.00 in - - ()
Sea Level Pressure  
Sea Level Pressure 29.79 in    
Wind  
Wind Speed 4 mph (WSW)    
Max Wind Speed 14 mph    
Max Gust Speed -    
Visibility 9 miles    
Events      
Averages and records for this station are not official NWS values.
T = Trace of Precipitation, MM = Missing Value Source: NWS Daily Summary

Daily Weather History Graph

Daily Weather History Graph

Search for Another Location

Airport or City:

Trip Planner

Search our weather history database for the weather conditions in past years. The results will help you decide how hot, cold, wet, or windy it might be!

Date:

Astronomy

Aug. 19, 2013 Rise Set
Actual Time 6:24 AM PDT 7:54 PM PDT
Civil Twilight 5:56 AM PDT 8:22 PM PDT
Nautical Twilight 5:22 AM PDT 8:56 PM PDT
Astronomical Twilight 4:46 AM PDT 9:31 PM PDT
Moon 6:49 PM PDT (8/19) 4:49 AM PDT (8/19)
Length of Visible Light 14h 26m
Length of Day
13h 30m
Waxing Gibbous, 98% of the Moon is Illuminated
Aug 19
Waxing Gibbous
Aug 20
Full
Aug 28
Last Quarter
Sep 5
New
Sep 12
First Quarter

Hourly Weather History & Observations

Time (PDT) Temp. Heat Index Dew Point Humidity Pressure Visibility Wind Dir Wind Speed Gust Speed Precip Events Conditions
12:53 AM 75.0 °F - 61.0 °F 62% 29.76 in 10.0 mi SW 4.6 mph - N/A   Clear
1:53 AM 73.0 °F - 60.1 °F 64% 29.77 in 10.0 mi Calm Calm - N/A   Clear
2:53 AM 73.0 °F - 61.0 °F 66% 29.76 in 10.0 mi SSW 10.4 mph - N/A   Clear
3:53 AM 70.0 °F - 59.0 °F 68% 29.77 in 10.0 mi NW 3.5 mph - N/A   Clear
4:53 AM 71.1 °F - 62.1 °F 73% 29.78 in 10.0 mi Calm Calm - N/A   Partly Cloudy
5:53 AM 71.1 °F - 61.0 °F 70% 29.79 in 10.0 mi Calm Calm - N/A   Scattered Clouds
6:53 AM 70.0 °F - 62.1 °F 76% 29.81 in 10.0 mi Calm Calm - N/A   Mostly Cloudy
7:53 AM 73.0 °F - 63.0 °F 71% 29.82 in 10.0 mi SW 4.6 mph - N/A   Mostly Cloudy
8:53 AM 75.9 °F - 64.0 °F 67% 29.84 in 10.0 mi Calm Calm - N/A   Overcast
9:53 AM 79.0 °F - 62.1 °F 56% 29.86 in 10.0 mi Calm Calm - N/A   Overcast
10:53 AM 82.0 °F 82.4 °F 60.1 °F 47% 29.85 in 10.0 mi South 4.6 mph - N/A   Mostly Cloudy
11:53 AM 86.0 °F 85.7 °F 60.1 °F 41% 29.85 in 10.0 mi South 5.8 mph - N/A   Mostly Cloudy
12:53 PM 90.0 °F 89.7 °F 60.1 °F 37% 29.84 in 10.0 mi Calm Calm - N/A   Mostly Cloudy
1:53 PM 95.0 °F 94.0 °F 57.9 °F 29% 29.82 in 10.0 mi Calm Calm - N/A   Mostly Cloudy
2:53 PM 99.0 °F 98.6 °F 59.0 °F 26% 29.80 in 9.0 mi NW 4.6 mph - N/A   Mostly Cloudy
3:53 PM 98.1 °F 97.7 °F 59.0 °F 27% 29.78 in 10.0 mi West 4.6 mph - N/A   Mostly Cloudy
4:53 PM 100.0 °F 98.8 °F 55.9 °F 23% 29.75 in 8.0 mi NW 5.8 mph - N/A   Partly Cloudy
5:53 PM 98.1 °F 99.1 °F 62.1 °F 30% 29.73 in 6.0 mi North 5.8 mph - N/A   Smoke
6:53 PM 93.9 °F 97.0 °F 66.0 °F 40% 29.73 in 6.0 mi North 5.8 mph - N/A   Haze
7:53 PM 86.0 °F 91.5 °F 71.1 °F 61% 29.72 in 5.0 mi WNW 3.5 mph - N/A   Haze
8:53 PM 84.0 °F 87.8 °F 69.1 °F 61% 29.75 in 7.0 mi NNE 8.1 mph - N/A   Clear
9:53 PM 84.0 °F 86.3 °F 66.0 °F 55% 29.76 in 7.0 mi Calm Calm - N/A   Clear
10:53 PM 75.9 °F - 59.0 °F 56% 29.75 in 10.0 mi SSW 13.8 mph - N/A   Clear
11:53 PM 72.0 °F - 59.0 °F 64% 29.78 in 10.0 mi SSE 13.8 mph - N/A   Clear